Hourly Data Report for April 22, 2012

MIRAMICHI RCS
NEW BRUNSWICK

47°00'34.000" N
65°27'54.000" W
33.00 m
8100989
71744
ACQ

Download Data

Hourly Data (April 2012)
Hourly Data Report for April 22, 2012
TIME
LST
Temp Definition
°C
Dew Point Definition
°C
Rel Hum Definition
%
Precip. Amount Definition
mm

Wind Dir Definition
10's deg

Wind Spd Definition
km/h
Visibility Definition
km
Stn Press Definition
kPa
Hmdx Definition


Wind Chill Definition


Weather Definition


00:00 0.9 -0.1 93   2 13   101.04     LegendNANA
01:00 0.7 -0.2 94   3 15   101.01     LegendNANA
02:00 0.7 -0.2 94   3 17   100.97     LegendNANA
03:00 0.7 -0.3 93   4 17   100.99     LegendNANA
04:00 0.7 -0.2 94   5 15   100.95     LegendNANA
05:00 0.7 -0.2 94   3 11   100.92     LegendNANA
06:00 0.7 -0.2 94   4 13   100.95     LegendNANA
07:00 0.8 -0.3 92   4 15   100.93     LegendNANA
08:00 0.7 -0.3 93   4 15   100.96     LegendNANA
09:00 0.5 -0.4 94   1 9   100.99     LegendNANA
10:00 0.9 0.0 94   3 15   101.02     LegendNANA
11:00 1.1 -0.1 92   2 13   101.06     LegendNANA
12:00 1.0 0.0 93   4 11   101.08     LegendNANA
13:00 1.8 0.3 90   3 15   101.11     LegendNANA
14:00 1.3 -0.2 90   1 13   101.28     LegendNANA
15:00 1.7 0.7 93   2 9   101.30     LegendNANA
16:00 2.1 0.5 89   3 15   101.32     LegendNANA
17:00 2.0 0.3 88   4 17   101.39     LegendNANA
18:00 1.6 0.0 89   5 19   101.45     LegendNANA
19:00 1.6 0.0 89   4 9   101.52     LegendNANA
20:00 1.4 -0.7 86   4 15   101.60     LegendNANA
21:00 1.1 -0.8 87   4 15   101.66     LegendNANA
22:00 0.9 -0.8 88   5 11   101.77     LegendNANA
23:00 0.6 -1.0 89   3 15   101.70     LegendNANA

Notes on Data Quality.

Legend

  • E = Estimated
  • M = Missing
  • NA = Not Available*
  • [empty] = Indicates an unobserved value
Date modified: